Time,TemperatureF,DewpointF,PressureIn,WindDirection,WindDirectionDegrees,WindSpeedMPH,WindSpeedGustMPH,Humidity,HourlyPrecipIn,Conditions,Clouds,dailyrainin,SolarRadiationWatts/m^2,SoftwareType,DateUTC
2013-04-01 00:00:00,65.6,60.6,30.01,SSE,155,0.0,0.0,84,0.00,CLR,,0.00,0.0,WeatherDisplay:10.37,2013-04-01 04:00:00,
2013-04-01 00:01:00,65.5,60.5,30.01,SSE,155,1.1,0.0,84,0.00,CLR,,0.00,0.0,WeatherDisplay:10.37,2013-04-01 04:01:00,
2013-04-01 00:05:00,65.4,60.8,30.01,SSE,161,3.0,3.0,85,0.00,CLR,,0.00,0.0,WeatherDisplay:10.37,2013-04-01 04:05:00,
2013-04-01 00:13:00,65.6,61.0,30.01,SW,219,1.1,1.1,85,0.00,CLR,,0.00,0.0,WeatherDisplay:10.37,2013-04-01 04:13:00,
2013-04-01 00:33:00,65.4,61.1,30.00,SSW,206,0.0,0.5,86,0.00,CLR,,0.00,0.0,WeatherDisplay:10.37,2013-04-01 04:33:00,
2013-04-01 00:44:00,65.7,61.4,30.00,SSW,196,3.4,3.4,86,0.00,CLR,,0.00,0.0,WeatherDisplay:10.37,2013-04-01 04:44:00,
2013-04-01 00:56:00,66.3,61.7,30.00,SSW,200,2.3,2.3,85,0.00,CLR,,0.00,0.0,WeatherDisplay:10.37,2013-04-01 04:56:00,
2013-04-01 01:00:00,66.6,61.9,30.00,SW,236,3.4,3.4,85,0.00,CLR,,0.00,0.0,WeatherDisplay:10.37,2013-04-01 05:00:00,
2013-04-01 01:01:00,66.5,61.8,29.99,South,173,4.6,4.6,85,0.00,CLR,,0.00,0.0,WeatherDisplay:10.37,2013-04-01 05:01:00,
2013-04-01 01:06:00,66.6,61.9,30.00,South,169,3.4,3.4,85,0.00,CLR,,0.00,0.0,WeatherDisplay:10.37,2013-04-01 05:06:00,
2013-04-01 01:14:00,66.7,61.7,30.00,SSE,168,3.4,3.4,84,0.00,CLR,,0.00,0.0,WeatherDisplay:10.37,2013-04-01 05:14:00,
2013-04-01 01:24:00,67.0,62.0,30.00,South,175,3.4,3.4,84,0.00,CLR,,0.00,0.0,WeatherDisplay:10.37,2013-04-01 05:24:00,
2013-04-01 01:39:00,67.0,62.0,29.99,SSW,198,1.1,1.1,84,0.00,CLR,,0.00,0.0,WeatherDisplay:10.37,2013-04-01 05:39:00,
2013-04-01 01:44:00,66.9,61.9,29.99,South,190,0.0,0.0,84,0.00,CLR,,0.00,0.0,WeatherDisplay:10.37,2013-04-01 05:44:00,
2013-04-01 01:56:00,66.9,61.9,29.99,SE,146,3.4,3.4,84,0.00,CLR,,0.00,0.0,WeatherDisplay:10.37,2013-04-01 05:56:00,
2013-04-01 02:00:00,67.2,61.9,29.98,SSE,148,5.8,5.8,83,0.00,CLR,,0.00,0.0,WeatherDisplay:10.37,2013-04-01 06:00:00,
2013-04-01 02:01:00,67.0,62.0,29.99,South,190,3.4,3.4,84,0.00,CLR,,0.00,0.0,WeatherDisplay:10.37,2013-04-01 06:01:00,
2013-04-01 02:06:00,67.1,61.8,29.99,SSE,148,3.4,3.4,83,0.00,CLR,,0.00,0.0,WeatherDisplay:10.37,2013-04-01 06:06:00,
2013-04-01 02:23:00,67.2,61.9,29.98,SSW,192,3.4,3.4,83,0.00,CLR,,0.00,0.0,WeatherDisplay:10.37,2013-04-01 06:23:00,
2013-04-01 02:49:00,67.4,62.1,29.97,South,189,2.3,2.3,83,0.00,CLR,,0.00,0.0,WeatherDisplay:10.37,2013-04-01 06:49:00,
2013-04-01 02:56:00,67.3,62.0,29.97,SSE,155,3.4,3.4,83,0.00,CLR,,0.00,0.0,WeatherDisplay:10.37,2013-04-01 06:56:00,
2013-04-01 03:00:00,67.1,62.1,29.97,South,175,1.1,1.1,84,0.00,CLR,,0.00,0.0,WeatherDisplay:10.37,2013-04-01 07:00:00,
2013-04-01 03:01:00,67.2,62.2,29.98,SSE,155,2.3,2.3,84,0.00,CLR,,0.00,0.0,WeatherDisplay:10.37,2013-04-01 07:01:00,
2013-04-01 03:06:00,67.1,62.1,29.97,SE,139,5.8,5.8,84,0.00,CLR,,0.00,0.0,WeatherDisplay:10.37,2013-04-01 07:06:00,
2013-04-01 03:20:00,66.7,62.0,29.97,South,187,2.3,2.3,85,0.03,RA,,0.03,0.0,WeatherDisplay:10.37,2013-04-01 07:20:00,
2013-04-01 03:30:00,66.6,61.9,29.97,SSE,150,3.4,3.4,85,0.03,CLR,,0.03,0.0,WeatherDisplay:10.37,2013-04-01 07:30:00,
2013-04-01 03:40:00,66.4,62.1,29.96,SSE,150,3.4,3.4,86,0.03,CLR,,0.03,0.0,WeatherDisplay:10.37,2013-04-01 07:40:00,
2013-04-01 03:56:00,66.7,62.4,29.96,SSE,163,2.3,2.3,86,0.03,CLR,,0.03,0.0,WeatherDisplay:10.37,2013-04-01 07:56:00,
2013-04-01 04:00:00,66.6,62.6,29.96,SSE,159,4.0,4.0,87,0.03,CLR,,0.03,0.0,WeatherDisplay:10.37,2013-04-01 08:00:00,
2013-04-01 04:01:00,66.7,62.4,29.96,South,180,6.9,6.9,86,0.03,CLR,,0.03,0.0,WeatherDisplay:10.37,2013-04-01 08:01:00,
2013-04-01 04:06:00,66.6,62.3,29.96,SSE,167,2.3,2.3,86,0.03,CLR,,0.03,0.0,WeatherDisplay:10.37,2013-04-01 08:06:00,
2013-04-01 04:16:00,66.6,62.6,29.96,SE,144,9.2,9.2,87,0.03,CLR,,0.03,0.0,WeatherDisplay:10.37,2013-04-01 08:16:00,
2013-04-01 04:28:00,66.4,62.4,29.97,South,186,2.3,2.3,87,0.00,CLR,,0.03,0.0,WeatherDisplay:10.37,2013-04-01 08:28:00,
2013-04-01 04:50:00,66.4,62.7,29.97,SSW,196,3.4,3.4,88,0.00,CLR,,0.03,0.0,WeatherDisplay:10.37,2013-04-01 08:50:00,
2013-04-01 04:56:00,66.5,62.8,29.97,SSE,161,6.9,6.9,88,0.00,CLR,,0.03,0.0,WeatherDisplay:10.37,2013-04-01 08:56:00,
2013-04-01 05:00:00,66.7,63.0,29.96,SW,221,3.4,3.4,88,0.00,CLR,,0.03,0.0,WeatherDisplay:10.37,2013-04-01 09:00:00,
2013-04-01 05:01:00,66.6,62.9,29.97,SSE,164,3.4,3.4,88,0.00,CLR,,0.03,0.0,WeatherDisplay:10.37,2013-04-01 09:01:00,
2013-04-01 05:06:00,66.6,62.9,29.97,SSW,207,3.4,3.4,88,0.00,CLR,,0.03,0.0,WeatherDisplay:10.37,2013-04-01 09:06:00,
2013-04-01 05:13:00,66.8,63.1,29.96,SSE,159,3.4,3.4,88,0.00,CLR,,0.03,0.0,WeatherDisplay:10.37,2013-04-01 09:13:00,
2013-04-01 05:20:00,67.0,63.0,29.96,SSE,155,5.8,5.8,87,0.00,CLR,,0.03,0.0,WeatherDisplay:10.37,2013-04-01 09:20:00,
2013-04-01 05:34:00,67.3,63.3,29.94,SSE,158,8.1,8.1,87,0.00,CLR,,0.03,0.0,WeatherDisplay:10.37,2013-04-01 09:34:00,
2013-04-01 05:41:00,67.3,63.3,29.95,WSW,240,3.4,3.4,87,0.00,CLR,,0.03,0.0,WeatherDisplay:10.37,2013-04-01 09:41:00,
2013-04-01 05:54:00,67.4,63.4,29.96,SSE,165,2.3,2.3,87,0.00,CLR,,0.03,0.0,WeatherDisplay:10.37,2013-04-01 09:54:00,
2013-04-01 05:59:00,67.4,63.4,29.96,South,175,3.4,3.4,87,0.00,CLR,,0.03,0.0,WeatherDisplay:10.37,2013-04-01 09:59:00,
2013-04-01 06:00:00,67.5,63.5,29.95,SE,133,3.4,3.4,87,0.00,CLR,,0.03,0.0,WeatherDisplay:10.37,2013-04-01 10:00:00,
2013-04-01 06:04:00,67.5,63.5,29.96,SSW,192,3.4,3.4,87,0.00,CLR,,0.03,0.0,WeatherDisplay:10.37,2013-04-01 10:04:00,
2013-04-01 06:09:00,67.5,63.5,29.95,SE,133,3.4,3.4,87,0.00,CLR,,0.03,0.0,WeatherDisplay:10.37,2013-04-01 10:09:00,
2013-04-01 06:43:00,67.4,64.0,29.97,SW,215,4.6,4.6,89,0.00,CLR,,0.03,0.0,WeatherDisplay:10.37,2013-04-01 10:43:00,
2013-04-01 06:49:00,67.5,63.8,29.97,South,173,3.4,3.4,88,0.00,CLR,,0.03,0.0,WeatherDisplay:10.37,2013-04-01 10:49:00,
2013-04-01 06:56:00,67.7,64.3,29.97,West,259,3.4,3.4,89,0.00,CLR,,0.03,0.0,WeatherDisplay:10.37,2013-04-01 10:56:00,
2013-04-01 07:00:00,67.8,64.4,29.98,SSE,157,3.4,3.4,89,0.00,OVC,,0.03,0.0,WeatherDisplay:10.37,2013-04-01 11:00:00,
2013-04-01 07:01:00,67.7,64.0,29.98,SE,144,3.4,3.4,88,0.00,OVC,,0.03,0.0,WeatherDisplay:10.37,2013-04-01 11:01:00,
2013-04-01 07:06:00,67.7,64.3,29.97,South,174,2.3,2.3,89,0.00,OVC,,0.03,0.0,WeatherDisplay:10.37,2013-04-01 11:06:00,
2013-04-01 07:19:00,67.7,64.3,29.98,WSW,242,3.4,3.4,89,0.00,OVC,,0.03,0.0,WeatherDisplay:10.37,2013-04-01 11:19:00,
2013-04-01 07:25:00,67.8,64.4,29.99,South,190,3.4,3.4,89,0.00,OVC,,0.03,0.0,WeatherDisplay:10.37,2013-04-01 11:25:00,
2013-04-01 07:48:00,67.9,64.9,29.99,South,181,3.4,3.4,90,0.00,OVC,,0.03,23.0,WeatherDisplay:10.37,2013-04-01 11:48:00,
2013-04-01 07:54:00,67.7,64.7,29.99,SSW,208,3.4,3.4,90,0.00,OVC,,0.03,26.0,WeatherDisplay:10.37,2013-04-01 11:54:00,
2013-04-01 07:59:00,67.7,64.7,30.00,SW,219,5.0,5.0,90,0.00,OVC,,0.03,28.0,WeatherDisplay:10.37,2013-04-01 11:59:00,
2013-04-01 08:00:00,67.9,65.2,30.00,South,182,3.4,4.6,91,0.00,OVC,,0.03,40.0,WeatherDisplay:10.37,2013-04-01 12:00:00,
2013-04-01 08:04:00,67.7,65.0,30.00,SSW,198,4.6,4.6,91,0.00,OVC,,0.03,32.0,WeatherDisplay:10.37,2013-04-01 12:04:00,
2013-04-01 08:09:00,67.9,65.2,30.00,SW,227,7.0,7.0,91,0.00,OVC,,0.03,39.0,WeatherDisplay:10.37,2013-04-01 12:09:00,
2013-04-01 08:21:00,68.3,65.3,30.01,SW,217,4.6,4.6,90,0.00,OVC,,0.03,97.0,WeatherDisplay:10.37,2013-04-01 12:21:00,
2013-04-01 08:44:00,69.3,65.9,30.01,West,263,4.6,4.6,89,0.00,OVC,,0.03,167.0,WeatherDisplay:10.37,2013-04-01 12:44:00,
2013-04-01 08:49:00,69.6,66.2,30.01,SW,234,6.9,6.9,89,0.00,OVC,,0.03,220.0,WeatherDisplay:10.37,2013-04-01 12:49:00,
2013-04-01 08:56:00,70.0,66.3,30.02,SSW,195,8.1,8.1,88,0.00,OVC,,0.03,243.0,WeatherDisplay:10.37,2013-04-01 12:56:00,
2013-04-01 09:00:00,70.7,66.6,30.02,WSW,252,4.6,4.6,87,0.00,OVC,,0.03,104.0,WeatherDisplay:10.37,2013-04-01 13:00:00,
2013-04-01 09:01:00,70.2,66.5,30.01,SW,215,5.8,5.8,88,0.00,OVC,,0.03,186.0,WeatherDisplay:10.37,2013-04-01 13:01:00,
2013-04-01 09:06:00,70.3,66.6,30.01,SW,236,4.6,4.6,88,0.00,OVC,,0.03,135.0,WeatherDisplay:10.37,2013-04-01 13:06:00,
2013-04-01 09:15:00,71.1,66.7,30.01,South,184,8.1,8.1,86,0.00,OVC,,0.03,114.0,WeatherDisplay:10.37,2013-04-01 13:15:00,
2013-04-01 09:34:00,72.9,66.7,30.01,SW,223,5.8,5.8,81,0.00,OVC,,0.03,146.0,WeatherDisplay:10.37,2013-04-01 13:34:00,
2013-04-01 09:42:00,72.7,66.5,30.01,SSE,152,8.1,8.1,81,0.00,OVC,,0.03,137.0,WeatherDisplay:10.37,2013-04-01 13:42:00,
2013-04-01 09:56:00,73.2,66.3,30.01,SW,223,11.5,11.5,79,0.00,OVC,,0.03,274.0,WeatherDisplay:10.37,2013-04-01 13:56:00,
2013-04-01 10:00:00,73.8,66.5,30.01,SSE,166,5.8,5.8,78,0.00,OVC,,0.03,427.0,WeatherDisplay:10.37,2013-04-01 14:00:00,
2013-04-01 10:01:00,72.9,66.4,30.01,SW,236,5.8,5.8,80,0.00,OVC,,0.03,211.0,WeatherDisplay:10.37,2013-04-01 14:01:00,
2013-04-01 10:06:00,73.2,67.0,30.01,South,184,3.4,3.4,81,0.00,OVC,,0.03,439.0,WeatherDisplay:10.37,2013-04-01 14:06:00,
2013-04-01 10:18:00,74.0,66.7,30.01,SW,217,10.3,10.3,78,0.00,BKN,,0.03,510.0,WeatherDisplay:10.37,2013-04-01 14:18:00,
2013-04-01 10:25:00,74.2,66.5,30.01,SSW,209,10.3,10.3,77,0.00,BKN,,0.03,519.0,WeatherDisplay:10.37,2013-04-01 14:25:00,
2013-04-01 10:34:00,74.2,66.5,30.01,West,268,9.2,9.2,77,0.00,BKN,,0.03,459.0,WeatherDisplay:10.37,2013-04-01 14:34:00,
2013-04-01 10:46:00,74.7,67.0,30.02,WSW,246,11.5,11.5,77,0.00,BKN,,0.03,613.0,WeatherDisplay:10.37,2013-04-01 14:46:00,
2013-04-01 10:55:00,74.2,67.3,30.02,SW,231,14.9,14.9,79,0.00,BKN,,0.03,501.0,WeatherDisplay:10.37,2013-04-01 14:55:00,
2013-04-01 11:00:00,74.2,67.6,30.02,SW,225,11.5,11.5,80,0.00,BKN,,0.03,636.0,WeatherDisplay:10.37,2013-04-01 15:00:00,
2013-04-01 11:05:00,74.0,67.8,30.02,WSW,244,11.5,11.5,81,0.00,BKN,,0.03,536.0,WeatherDisplay:10.37,2013-04-01 15:05:00,
2013-04-01 11:24:00,74.5,68.3,30.03,WSW,244,10.3,10.3,81,0.00,SCT,,0.03,724.0,WeatherDisplay:10.37,2013-04-01 15:24:00,
2013-04-01 11:56:00,75.9,68.5,30.03,WSW,242,11.5,11.5,78,0.00,OVC,,0.03,397.0,WeatherDisplay:10.37,2013-04-01 15:56:00,
2013-04-01 12:00:00,76.2,69.6,30.03,SW,226,6.9,6.9,80,0.00,OVC,,0.03,473.0,WeatherDisplay:10.37,2013-04-01 16:00:00,
2013-04-01 12:01:00,75.2,69.0,30.03,South,178,11.5,11.5,81,0.00,OVC,,0.03,469.0,WeatherDisplay:10.37,2013-04-01 16:01:00,
2013-04-01 12:06:00,75.3,69.1,30.03,SSE,151,5.8,5.8,81,0.00,OVC,,0.03,473.0,WeatherDisplay:10.37,2013-04-01 16:06:00,
2013-04-01 12:25:00,75.6,69.4,30.02,SW,234,11.5,11.5,81,0.00,SCT,,0.03,759.0,WeatherDisplay:10.37,2013-04-01 16:25:00,
2013-04-01 12:32:00,75.3,69.4,30.02,SW,227,11.5,11.5,82,0.00,BKN,,0.03,529.0,WeatherDisplay:10.37,2013-04-01 16:32:00,
2013-04-01 12:38:00,74.8,69.3,30.02,WSW,241,11.0,11.0,83,0.00,BKN,,0.03,582.0,WeatherDisplay:10.37,2013-04-01 16:38:00,
2013-04-01 12:46:00,75.6,70.1,30.02,WSW,247,11.5,11.5,83,0.00,BKN,,0.03,598.0,WeatherDisplay:10.37,2013-04-01 16:46:00,
2013-04-01 12:51:00,75.9,69.6,30.02,SW,233,12.0,12.0,81,0.00,BKN,,0.03,591.0,WeatherDisplay:10.37,2013-04-01 16:51:00,
2013-04-01 12:56:00,75.4,69.5,30.01,WSW,242,11.5,11.5,82,0.00,FEW,,0.03,1004.0,WeatherDisplay:10.37,2013-04-01 16:56:00,
2013-04-01 13:00:00,76.3,70.4,30.01,SW,233,11.5,11.5,82,0.00,FEW,,0.03,608.0,WeatherDisplay:10.37,2013-04-01 17:00:00,
2013-04-01 13:02:00,75.6,70.1,30.01,WSW,254,14.0,14.0,83,0.00,FEW,,0.03,1109.0,WeatherDisplay:10.37,2013-04-01 17:02:00,
2013-04-01 13:07:00,76.0,70.5,30.01,WSW,242,10.3,10.3,83,0.00,FEW,,0.03,1062.0,WeatherDisplay:10.37,2013-04-01 17:07:00,
2013-04-01 13:24:00,76.0,70.1,30.01,WSW,239,10.3,10.3,82,0.00,BKN,,0.03,1113.0,WeatherDisplay:10.37,2013-04-01 17:24:00,
2013-04-01 13:41:00,76.6,69.6,30.01,SW,219,11.0,11.0,79,0.00,FEW,,0.03,926.0,WeatherDisplay:10.37,2013-04-01 17:41:00,
2013-04-01 13:56:00,76.8,69.4,30.01,WSW,242,8.1,8.1,78,0.00,FEW,,0.03,921.0,WeatherDisplay:10.37,2013-04-01 17:56:00,
2013-04-01 14:00:00,76.2,69.2,30.00,WSW,257,11.5,11.5,79,0.00,FEW,,0.03,904.0,WeatherDisplay:10.37,2013-04-01 18:00:00,
2013-04-01 14:01:00,77.3,69.5,30.01,SW,218,8.1,8.1,77,0.00,CLR,,0.03,1044.0,WeatherDisplay:10.37,2013-04-01 18:01:00,
2013-04-01 14:06:00,76.0,68.6,30.01,SW,227,11.5,11.5,78,0.00,FEW,,0.03,882.0,WeatherDisplay:10.37,2013-04-01 18:06:00,
2013-04-01 14:45:00,74.2,67.6,30.00,SW,229,10.3,10.3,80,0.00,OVC,,0.03,323.0,WeatherDisplay:10.37,2013-04-01 18:45:00,
2013-04-01 14:56:00,72.4,67.3,30.00,WSW,253,11.5,11.5,84,0.00,BKN,,0.03,334.0,WeatherDisplay:10.37,2013-04-01 18:56:00,
2013-04-01 15:00:00,73.3,67.8,30.00,SSW,202,11.5,11.5,83,0.00,FEW,,0.03,657.0,WeatherDisplay:10.37,2013-04-01 19:00:00,
2013-04-01 15:01:00,72.4,67.3,30.00,West,261,10.3,10.3,84,0.00,OVC,,0.03,299.0,WeatherDisplay:10.37,2013-04-01 19:01:00,
2013-04-01 15:06:00,73.1,68.3,30.00,West,267,5.8,5.8,85,0.00,SCT,,0.03,584.0,WeatherDisplay:10.37,2013-04-01 19:06:00,
2013-04-01 15:20:00,72.8,67.7,29.99,SW,233,5.8,5.8,84,0.00,BKN,,0.03,392.0,WeatherDisplay:10.37,2013-04-01 19:20:00,
2013-04-01 15:25:00,73.8,68.3,29.99,WSW,240,5.8,5.8,83,0.00,SCT,,0.03,388.0,WeatherDisplay:10.37,2013-04-01 19:25:00,
2013-04-01 15:32:00,74.4,68.5,29.99,SE,135,3.4,3.9,82,0.00,FEW,,0.03,513.0,WeatherDisplay:10.37,2013-04-01 19:32:00,
2013-04-01 15:37:00,74.2,67.6,29.98,WSW,242,12.0,12.0,80,0.00,FEW,,0.03,427.0,WeatherDisplay:10.37,2013-04-01 19:37:00,
2013-04-01 15:49:00,74.5,68.3,29.98,WSW,242,6.9,6.9,81,0.00,FEW,,0.03,835.0,WeatherDisplay:10.37,2013-04-01 19:49:00,
2013-04-01 15:54:00,75.2,67.9,29.98,West,266,10.3,10.3,78,0.00,CLR,,0.03,805.0,WeatherDisplay:10.37,2013-04-01 19:54:00,
2013-04-01 15:59:00,75.1,68.5,29.98,SW,236,8.0,8.0,80,0.00,CLR,,0.03,747.0,WeatherDisplay:10.37,2013-04-01 19:59:00,
2013-04-01 16:00:00,76.1,68.4,29.98,SW,236,10.3,10.3,77,0.00,CLR,,0.03,726.0,WeatherDisplay:10.37,2013-04-01 20:00:00,
2013-04-01 16:04:00,75.4,68.1,29.98,SW,227,11.5,11.5,78,0.00,CLR,,0.03,740.0,WeatherDisplay:10.37,2013-04-01 20:04:00,
2013-04-01 16:09:00,76.2,68.5,29.98,SW,229,9.2,9.2,77,0.00,CLR,,0.03,728.0,WeatherDisplay:10.37,2013-04-01 20:09:00,
2013-04-01 16:16:00,74.9,67.6,29.98,SW,215,8.1,8.1,78,0.00,CLR,,0.03,693.0,WeatherDisplay:10.37,2013-04-01 20:16:00,
2013-04-01 16:55:00,75.0,68.0,29.97,SW,228,3.4,3.4,79,0.00,CLR,,0.03,601.0,WeatherDisplay:10.37,2013-04-01 20:55:00,
2013-04-01 17:00:00,75.8,68.4,29.97,WNW,284,5.8,5.8,78,0.00,CLR,,0.03,585.0,WeatherDisplay:10.37,2013-04-01 21:00:00,
2013-04-01 17:05:00,75.6,68.3,29.97,WNW,294,10.3,10.3,78,0.00,CLR,,0.03,568.0,WeatherDisplay:10.37,2013-04-01 21:05:00,
2013-04-01 17:18:00,74.2,67.3,29.97,SW,224,11.5,11.5,79,0.00,CLR,,0.03,529.0,WeatherDisplay:10.37,2013-04-01 21:18:00,
2013-04-01 17:30:00,73.7,67.9,29.97,WSW,238,9.0,9.0,82,0.00,CLR,,0.03,464.0,WeatherDisplay:10.37,2013-04-01 21:30:00,
2013-04-01 17:39:00,73.4,67.9,29.97,WSW,246,7.0,7.0,83,0.00,CLR,,0.03,454.0,WeatherDisplay:10.37,2013-04-01 21:39:00,
2013-04-01 17:49:00,71.9,67.5,29.97,SW,236,8.1,8.1,86,0.00,CLR,,0.03,153.0,WeatherDisplay:10.37,2013-04-01 21:49:00,
2013-04-01 17:56:00,72.0,67.9,29.97,SSW,200,4.6,4.6,87,0.00,CLR,,0.03,209.0,WeatherDisplay:10.37,2013-04-01 21:56:00,
2013-04-01 18:00:00,73.1,68.3,29.97,West,281,5.0,6.1,85,0.00,OVC,,0.03,330.0,WeatherDisplay:10.37,2013-04-01 22:00:00,
2013-04-01 18:01:00,72.7,68.3,29.97,SW,232,8.1,8.1,86,0.00,CLR,,0.03,434.0,WeatherDisplay:10.37,2013-04-01 22:01:00,
2013-04-01 18:06:00,73.1,68.7,29.97,WNW,286,6.0,6.0,86,0.00,CLR,,0.03,327.0,WeatherDisplay:10.37,2013-04-01 22:06:00,
2013-04-01 18:24:00,72.7,68.3,29.97,WNW,289,2.3,2.3,86,0.00,OVC,,0.03,90.0,WeatherDisplay:10.37,2013-04-01 22:24:00,
2013-04-01 18:41:00,72.1,68.0,29.97,WNW,283,5.8,5.8,87,0.00,OVC,,0.03,65.0,WeatherDisplay:10.37,2013-04-01 22:41:00,
2013-04-01 18:55:00,71.6,67.5,29.98,WSW,257,3.4,3.4,87,0.00,OVC,,0.03,51.0,WeatherDisplay:10.37,2013-04-01 22:55:00,
2013-04-01 19:00:00,71.6,67.5,29.98,NW,306,5.8,5.8,87,0.00,OVC,,0.03,46.0,WeatherDisplay:10.37,2013-04-01 23:00:00,
2013-04-01 19:05:00,71.2,67.1,29.98,NW,314,6.9,6.9,87,0.00,OVC,,0.03,42.0,WeatherDisplay:10.37,2013-04-01 23:05:00,
2013-04-01 19:10:00,70.9,67.2,29.97,NW,309,8.1,8.1,88,0.00,OVC,,0.03,37.0,WeatherDisplay:10.37,2013-04-01 23:10:00,
2013-04-01 19:19:00,70.6,67.2,29.97,NW,304,6.9,6.9,89,0.00,OVC,,0.03,30.0,WeatherDisplay:10.37,2013-04-01 23:19:00,
2013-04-01 19:44:00,69.8,66.7,29.97,NW,309,5.8,5.8,90,0.00,OVC,,0.03,9.0,WeatherDisplay:10.37,2013-04-01 23:44:00,
2013-04-01 19:55:00,69.5,66.4,29.97,WNW,284,4.0,4.0,90,0.00,OVC,,0.03,0.0,WeatherDisplay:10.37,2013-04-01 23:55:00,
2013-04-01 20:00:00,69.3,66.6,29.97,West,271,3.4,3.4,91,0.00,CLR,,0.03,0.0,WeatherDisplay:10.37,2013-04-02 00:00:00,
2013-04-01 20:05:00,69.2,66.5,29.97,West,271,3.4,3.4,91,0.00,CLR,,0.03,0.0,WeatherDisplay:10.37,2013-04-02 00:05:00,
2013-04-01 20:20:00,68.8,66.4,29.98,WNW,292,2.0,2.0,92,0.00,CLR,,0.03,0.0,WeatherDisplay:10.37,2013-04-02 00:20:00,
2013-04-01 20:56:00,68.0,65.9,29.99,West,270,1.1,0.0,93,0.00,CLR,,0.03,0.0,WeatherDisplay:10.37,2013-04-02 00:56:00,
2013-04-01 21:00:00,67.7,65.9,29.99,WSW,245,2.3,2.3,94,0.00,CLR,,0.03,0.0,WeatherDisplay:10.37,2013-04-02 01:00:00,
2013-04-01 21:01:00,67.9,65.8,29.99,West,264,1.1,1.1,93,0.00,CLR,,0.03,0.0,WeatherDisplay:10.37,2013-04-02 01:01:00,
2013-04-01 21:06:00,67.7,65.9,29.99,WSW,245,0.0,0.2,94,0.00,CLR,,0.03,0.0,WeatherDisplay:10.37,2013-04-02 01:06:00,
2013-04-01 21:30:00,67.4,65.9,30.00,WSW,238,1.1,1.1,95,0.00,CLR,,0.03,0.0,WeatherDisplay:10.37,2013-04-02 01:30:00,
2013-04-01 21:44:00,67.2,65.7,30.01,WSW,243,1.1,1.1,95,0.00,CLR,,0.03,0.0,WeatherDisplay:10.37,2013-04-02 01:44:00,
2013-04-01 21:56:00,67.1,65.6,30.01,WSW,246,3.4,3.4,95,0.00,CLR,,0.03,0.0,WeatherDisplay:10.37,2013-04-02 01:56:00,
2013-04-01 22:00:00,67.1,65.9,30.01,West,260,1.1,1.1,96,0.00,CLR,,0.03,0.0,WeatherDisplay:10.37,2013-04-02 02:00:00,
2013-04-01 22:01:00,67.1,65.6,30.01,WSW,244,3.0,3.0,95,0.00,CLR,,0.03,0.0,WeatherDisplay:10.37,2013-04-02 02:01:00,
2013-04-01 22:06:00,67.1,65.6,30.01,West,260,1.1,1.1,95,0.00,CLR,,0.03,0.0,WeatherDisplay:10.37,2013-04-02 02:06:00,
2013-04-01 22:25:00,66.9,65.7,30.01,WSW,252,2.0,2.0,96,0.00,CLR,,0.03,0.0,WeatherDisplay:10.37,2013-04-02 02:25:00,
2013-04-01 22:39:00,66.8,65.6,30.01,WSW,243,1.1,1.1,96,0.00,CLR,,0.03,0.0,WeatherDisplay:10.37,2013-04-02 02:39:00,
2013-04-01 22:52:00,66.5,65.3,30.01,WSW,244,1.1,1.1,96,0.00,CLR,,0.03,0.0,WeatherDisplay:10.37,2013-04-02 02:52:00,
2013-04-01 22:57:00,66.4,65.2,30.01,WSW,244,1.1,1.1,96,0.00,CLR,,0.03,0.0,WeatherDisplay:10.37,2013-04-02 02:57:00,
2013-04-01 23:00:00,66.3,65.1,30.01,WSW,244,1.1,1.1,96,0.00,CLR,,0.03,0.0,WeatherDisplay:10.37,2013-04-02 03:00:00,
2013-04-01 23:02:00,66.3,65.1,30.01,WSW,244,0.0,0.0,96,0.00,CLR,,0.03,0.0,WeatherDisplay:10.37,2013-04-02 03:02:00,
2013-04-01 23:07:00,66.3,65.1,30.01,WSW,244,0.0,0.0,96,0.00,CLR,,0.03,0.0,WeatherDisplay:10.37,2013-04-02 03:07:00,
2013-04-01 23:37:00,65.9,65.0,30.02,WSW,244,1.1,0.0,97,0.00,CLR,,0.03,0.0,WeatherDisplay:10.37,2013-04-02 03:37:00,
2013-04-01 23:43:00,65.8,64.9,30.01,WSW,244,0.0,0.0,97,0.00,CLR,,0.03,0.0,WeatherDisplay:10.37,2013-04-02 03:43:00,
2013-04-01 23:51:00,65.6,64.7,30.02,WSW,244,1.1,0.0,97,0.00,CLR,,0.03,0.0,WeatherDisplay:10.37,2013-04-02 03:51:00,
2013-04-01 23:56:00,65.6,64.7,30.02,WSW,244,0.0,0.0,97,0.00,CLR,,0.03,0.0,WeatherDisplay:10.37,2013-04-02 03:56:00,